STARLINK-31869, 60196

Orbit data source: Space-Track

STARLINK-31869, 60196 is a payload satellite owned by SpaceX/Seattle (US) in LEO that was launched on Wed, 03 Jul 2024 UTC via an FALCON 9 launch vehicle from the Air Force Eastern Test Range (AFETR). Payload-class satellites include a variety of spacecraft equipped with specific instruments for various scientific and technological missions. These include communications satellites like Starlink; space stations such as the ISS; scientific satellites like the Hubble; Earth observation satellites from companies like Planet Labs, Umbra, and HawkEye 360; GPS; miniature CubeSats for education and research; and military/defense satellites.

Loading next visibility...
Identifier
60196, 2024-124P
Orbit
LEO
Country
Flag of USUS
Related business
Manufacturer
SpaceX/Seattle
Mission
Operational Commercial Communications
Bus & Motor
STARLINK V2M, Unknown motor
Mass
730 kg wet, ~700 kg dry
Launch date (UTC)
2024-07-03 (1 year ago)
Launch vehicle
FALCON 9
Launch site
Air Force Eastern Test Range (AFETR)
Object type
Payload
Rocket body
Debris
Shape & HBR
Box + 2 Pan, 17.7 m
Radar Cross Section
33.884 m², Large (>1 m²)

Expand to show TLE details & history
Last TLE update: 2 days ago

TLE from 2 days ago
0 STARLINK-31869
1 60196U 24124P   25310.35401406  .00000436  00000-0  26837-4 0  9992
2 60196  53.1623 175.2950 0001288  89.9582 270.1567 15.30194135 75410
Epoch: 2025-11-06T08:29Z
TLE epoch observation values (Epoch: 2025-11-06T08:29:46.814Z)
Latitude
0.00001°
Longitude
2.03641°
Altitude
476.13 km
Speed
7.629 km/s
True Right ascension
11h 41m 10s
True Declination
0° 00' 00"
Sunlit
Object was in daylight at epoch
Visualization orbit readout
Latitude
Unknown
Longitude
Unknown
Altitude
Unknown
Speed
Unknown
Apparent Right ascension
Unknown
Apparent Declination
Unknown
Sunlit
N/A
Visualization observer readout
Local Sidereal Time
17:57:12
Azimuth
Unknown
Elevation
Unknown
Doppler factor
Unknown
Orbital elements
Apogee altitude
476.371 km
Perigee altitude
474.606 km
Semi-major axis
6,853.626 km
Eccentricity
0.00013
Inclination
53.1623°
RAAN
175.295°
Arg. of periapsis
89.9582°
True anomaly
270.14194°
Mean anomaly
270.1567°
Eccentric anomaly
270.14932°
Mean motion
3.82527 °/min
Orbital period
94.11 mins
BSTAR
0.000026837
Loading maneuver chart data...
Computing Atmospheric mass density...
Loading historical data...
Loading historical data...
Loading historical data...
Loading historical data...
Loading historical data...
Loading historical data...
Loading historical data...

Documentation

Showing up to 5 results
|